Weather History for KBOK - November, 2013

Change the Weather History Date:

Saturday, November 2, 2013

  Actual Average Record
Temperature  
Mean Temperature 50 °F -  
Max Temperature 55 °F 63 °F 77 °F (2010)
Min Temperature 44 °F 47 °F 28 °F (1935)
Degree Days  
Heating Degree Days 16    
Moisture  
Dew Point 47 °F    
Average Humidity 93    
Maximum Humidity 100    
Minimum Humidity 67    
Precipitation  
Precipitation 0.35 in - - ()
Sea Level Pressure  
Sea Level Pressure 30.09 in    
Wind  
Wind Speed 4 mph (East)    
Max Wind Speed 16 mph    
Max Gust Speed 21 mph    
Visibility 5 miles    
Events Fog , Rain    
Averages and records for this station are not official NWS values.
T = Trace of Precipitation, MM = Missing Value Source: NWS Daily Summary

Daily Weather History Graph

Daily Weather History Graph

Search for Another Location

Airport or City:

Trip Planner

Search our weather history database for the weather conditions in past years. The results will help you decide how hot, cold, wet, or windy it might be!

Date:

Astronomy

Nov. 02, 2013 Rise Set
Actual Time 7:51 AM PDT 6:09 PM PDT
Civil Twilight 7:22 AM PDT 6:38 PM PDT
Nautical Twilight 6:49 AM PDT 7:11 PM PDT
Astronomical Twilight 6:16 AM PDT 7:44 PM PDT
Moon 6:54 AM PDT (11/2) 5:44 PM PDT (11/2)
Length of Visible Light 11h 15m
Length of Day
10h 17m
Waning Crescent, 1% of the Moon is Illuminated
Nov 2
Waning Crescent
Nov 3
New
Nov 9
First Quarter
Nov 17
Full
Nov 25
Last Quarter

Hourly Weather History & Observations

Time (PDT) Temp. Windchill Dew Point Humidity Pressure Visibility Wind Dir Wind Speed Gust Speed Precip Events Conditions
12:29 AM 44.6 °F 43.1 °F 44.6 °F 100% 30.04 in 0.5 mi ESE 3.5 mph - N/A Fog Fog
12:32 AM 44.6 °F - 44.6 °F 100% 30.04 in 1.0 mi Calm Calm - N/A   Overcast
12:34 AM 44.6 °F - 44.6 °F 100% 30.05 in 2.0 mi Calm Calm - N/A   Overcast
12:38 AM 46.4 °F - 46.4 °F 100% 30.04 in 8.0 mi Calm Calm - N/A   Overcast
12:56 AM 46.9 °F - 46.9 °F 100% 30.04 in 10.0 mi Variable 5.8 mph - N/A   Overcast
1:32 AM 46.4 °F 44.3 °F 46.4 °F 100% 30.04 in 2.5 mi Variable 4.6 mph - N/A   Overcast
1:34 AM 46.4 °F 43.5 °F 46.4 °F 100% 30.04 in 1.2 mi SSE 5.8 mph - N/A   Overcast
1:36 AM 46.4 °F 43.5 °F 46.4 °F 100% 30.04 in 0.8 mi SSE 5.8 mph - N/A   Overcast
1:39 AM 46.4 °F 44.3 °F 46.4 °F 100% 30.04 in 0.5 mi South 4.6 mph - N/A Fog Fog
1:56 AM 45.9 °F 44.6 °F 45.9 °F 100% 30.05 in 0.2 mi ESE 3.5 mph - N/A Fog Fog
2:02 AM 46.4 °F 45.2 °F 46.4 °F 100% 30.04 in 0.8 mi East 3.5 mph - N/A   Overcast
2:04 AM 46.4 °F 45.2 °F 46.4 °F 100% 30.04 in 1.2 mi East 3.5 mph - N/A   Overcast
2:06 AM 46.4 °F 45.2 °F 46.4 °F 100% 30.04 in 3.0 mi East 3.5 mph - N/A   Overcast
2:30 AM 48.2 °F - 48.2 °F 100% 30.05 in 10.0 mi Calm Calm - N/A   Overcast
2:43 AM 48.2 °F - 48.2 °F 100% 30.06 in 10.0 mi Calm Calm - 0.00 in Rain Light Rain
2:56 AM 48.9 °F - 47.8 °F 96% 30.07 in 3.0 mi Calm Calm - 0.02 in Rain Heavy Rain
3:24 AM 48.2 °F - 48.2 °F 100% 30.05 in 2.5 mi Variable 4.6 mph - 0.01 in Rain Light Rain
3:27 AM 48.2 °F - 48.2 °F 100% 30.06 in 4.0 mi Variable 5.8 mph - 0.01 in Rain Light Rain
3:34 AM 48.2 °F - 48.2 °F 100% 30.05 in 4.0 mi SE 5.8 mph - 0.02 in Rain Light Rain
3:56 AM 48.9 °F - 48.9 °F 100% 30.04 in 10.0 mi ESE 9.2 mph - 0.02 in Rain Light Rain
4:38 AM 50.0 °F - 48.2 °F 94% 30.01 in 2.0 mi East 8.1 mph - 0.01 in Rain Light Rain
4:46 AM 50.0 °F - 48.2 °F 94% 30.01 in 3.0 mi ESE 9.2 mph - 0.02 in Rain Light Rain
4:56 AM 50.0 °F - 48.9 °F 96% 30.01 in 9.0 mi East 8.1 mph - 0.02 in Rain Light Rain
5:23 AM 50.0 °F - 48.2 °F 94% 30.02 in 1.8 mi Calm Calm - 0.04 in Rain Rain
5:32 AM 50.0 °F - 48.2 °F 94% 30.02 in 1.2 mi SE 3.5 mph - 0.06 in Rain Rain
5:45 AM 50.0 °F - 48.2 °F 94% 30.02 in 1.0 mi ESE 4.6 mph - 0.12 in Rain Rain
5:56 AM 50.0 °F - 48.9 °F 96% 30.04 in 2.0 mi WSW 3.5 mph - 0.13 in Rain Light Rain
6:01 AM 50.0 °F - 48.2 °F 94% 30.04 in 1.5 mi Variable 3.5 mph - 0.00 in Rain Light Rain
6:07 AM 48.2 °F - 48.2 °F 100% 30.04 in 1.0 mi Calm Calm - 0.02 in Rain Rain
6:17 AM 48.2 °F - 48.2 °F 100% 30.05 in 1.0 mi WSW 3.5 mph - 0.06 in Rain Rain
6:30 AM 48.2 °F - 48.2 °F 100% 30.05 in 1.2 mi Calm Calm - 0.10 in Rain Heavy Rain
6:37 AM 48.2 °F - 48.2 °F 100% 30.06 in 1.8 mi Calm Calm - 0.11 in Rain Light Rain
6:56 AM 48.9 °F - 48.9 °F 100% 30.06 in 5.0 mi Calm Calm - 0.13 in Rain Light Rain
7:12 AM 48.2 °F - 48.2 °F 100% 30.06 in 1.8 mi Calm Calm - 0.02 in Rain Light Rain
7:22 AM 48.2 °F - 48.2 °F 100% 30.07 in 2.0 mi South 4.6 mph - 0.02 in Rain Light Rain
7:32 AM 48.2 °F - 48.2 °F 100% 30.07 in 4.0 mi Calm Calm - 0.02 in Rain Light Rain
7:56 AM 50.0 °F - 50.0 °F 100% 30.09 in 7.0 mi Calm Calm - 0.02 in   Overcast
8:05 AM 50.0 °F - 50.0 °F 100% 30.08 in 7.0 mi Calm Calm - N/A   Overcast
8:25 AM 50.0 °F - 50.0 °F 100% 30.09 in 4.0 mi Calm Calm - N/A   Overcast
8:36 AM 50.0 °F - 50.0 °F 100% 30.10 in 2.0 mi Calm Calm - 0.01 in Rain Light Rain
8:40 AM 50.0 °F - 50.0 °F 100% 30.10 in 1.8 mi Calm Calm - 0.01 in Rain Light Rain
8:46 AM 50.0 °F - 50.0 °F 100% 30.10 in 2.0 mi Calm Calm - 0.01 in Rain Light Rain
8:49 AM 50.0 °F - 50.0 °F 100% 30.10 in 3.0 mi Calm Calm - 0.01 in Rain Light Rain
8:56 AM 50.0 °F - 50.0 °F 100% 30.12 in 10.0 mi Calm Calm - 0.01 in   Overcast
9:56 AM 52.9 °F - 50.0 °F 90% 30.13 in 10.0 mi Variable 3.5 mph - N/A   Clear
10:56 AM 54.0 °F - 48.9 °F 83% 30.15 in 8.0 mi NNW 4.6 mph - N/A   Mostly Cloudy
11:56 AM 55.9 °F - 46.9 °F 72% 30.17 in 10.0 mi North 8.1 mph - N/A   Partly Cloudy
12:56 PM 55.9 °F - 45.0 °F 67% 30.16 in 10.0 mi North 6.9 mph - N/A   Partly Cloudy
1:56 PM 55.9 °F - 46.9 °F 72% 30.16 in 9.0 mi NW 13.8 mph 20.7 mph N/A   Partly Cloudy
2:56 PM 55.9 °F - 45.9 °F 69% 30.16 in 8.0 mi NNW 13.8 mph 20.7 mph N/A   Clear
3:56 PM 55.9 °F - 45.9 °F 69% 30.16 in 8.0 mi NNW 16.1 mph 19.6 mph N/A   Clear
4:56 PM 54.9 °F - 45.0 °F 69% 30.17 in 8.0 mi NNW 15.0 mph 20.7 mph N/A   Partly Cloudy
5:56 PM 52.0 °F - 43.9 °F 74% 30.18 in 8.0 mi NNW 8.1 mph - N/A   Partly Cloudy
6:56 PM 50.0 °F - 43.0 °F 77% 30.19 in 10.0 mi Variable 3.5 mph - N/A   Clear
7:56 PM 48.9 °F - 41.0 °F 74% 30.21 in 10.0 mi NNE 6.9 mph - N/A   Clear
8:56 PM 46.9 °F - 39.9 °F 77% 30.22 in 10.0 mi Calm Calm - N/A   Clear
9:56 PM 47.8 °F - 41.0 °F 77% 30.23 in 6.0 mi NNE 5.8 mph - 0.00 in Rain Light Rain
10:56 PM 45.9 °F 43.6 °F 39.9 °F 80% 30.23 in 10.0 mi Variable 4.6 mph - 0.00 in   Clear
11:56 PM 45.9 °F 41.7 °F 41.0 °F 83% 30.22 in 10.0 mi NE 8.1 mph - N/A   Clear